Lid_Strength_Index
-1 -1 -1 -1 -1 -1 -1 -1 -1 -2 -1 -1 -1 -1 -1 -1 -1 1 4 1 1 -1 -0 2 2 3 4 6 7 8 13 14 13 12 12 11 12 10 8 7 7 6 6 4 4
-2 -1 -1 -1 -1 -1 -1 -1 -2 -2 -1 -1 -1 -1 -1 -1 2 3 -1 -2 -2 -1 3 4 6 4 7 7 8 10 13 13 10 11 12 11 11 11 9 9 8 8 5 3 4
-1 -2 -1 -1 -1 -2 -2 -1 -2 -2 -2 -2 -1 -1 -1 -0 5 5 -2 -2 -2 -1 2 2 4 5 8 7 8 10 12 10 10 9 9 9 10 10 10 10 7 7 6 4 4
-1 -1 -1 -2 -2 -2 -2 -1 -2 -2 -2 -2 -2 -1 -1 2 15 3 -2 -1 -2 1 2 3 5 8 9 10 7 11 8 8 8 8 8 9 9 10 11 8 7 5 4 4 4
-1 -1 -1 -1 -1 -2 -2 -2 -2 -2 -2 -2 -1 -1 1 6 6 1 -2 -1 -0 2 3 5 7 8 10 9 8 10 9 7 7 7 8 8 9 10 11 8 8 4 4 5 4
-1 -1 -1 -1 -1 -1 -2 -2 -2 -2 -2 -1 -1 -1 4 9 2 1 1 0 1 3 3 4 6 5 8 9 9 8 8 8 7 7 8 9 8 9 9 10 7 5 5 5 4
-1 -1 -1 -1 -1 -1 -1 -1 -1 -1 -2 -1 -1 0 4 6 1 1 0 2 1 3 4 3 3 5 6 9 7 9 11 9 8 8 9 8 10 10 8 11 8 6 5 5 4
-1 -1 -1 -1 -1 -1 -1 -2 -1 -1 -2 -1 -1 1 7 2 2 2 1 3 2 1 2 2 2 5 7 6 8 10 11 14 9 8 9 9 13 9 8 10 11 6 6 5 5
-0 -0 -1 -1 -1 -1 -1 -1 -1 -1 -1 -1 1 4 8 -0 3 2 2 4 4 3 2 1 3 7 7 11 13 12 15 14 12 8 9 10 13 10 8 9 10 10 6 6 5
-0 -0 -1 -1 -1 -1 -1 -1 -1 -1 -0 -0 1 6 6 6 3 2 2 3 5 4 6 6 7 10 10 12 17 16 15 13 13 10 9 11 13 10 9 10 10 11 7 6 6
-0 -0 -1 -1 -1 -1 -0 1 4 5 3 7 7 8 6 3 2 4 3 4 4 7 10 8 11 13 11 10 11 12 12 14 12 9 11 11 11 11 9 9 9 10 11 7 6
-0 -0 -0 -1 -1 -1 0 5 5 6 8 5 6 5 4 3 6 5 2 7 8 11 9 11 13 10 9 10 11 12 13 14 11 9 11 11 12 10 9 9 9 9 11 10 6
-0 -0 -0 -1 -1 0 3 4 2 4 10 8 6 6 5 4 7 7 4 6 9 11 11 12 11 8 10 11 12 12 14 13 13 11 10 12 14 12 10 9 9 8 9 11 9
-0 -0 -0 -1 2 2 4 3 2 6 16 12 9 7 5 5 9 4 3 6 9 11 10 11 8 10 11 12 11 15 10 11 13 14 17 12 19 13 10 10 10 9 9 9 10
-0 -0 -0 -0 2 4 3 3 3 7 23 11 9 4 5 8 8 7 4 6 10 11 10 13 12 12 12 12 10 13 10 11 12 14 14 15 17 14 10 12 11 10 9 9 8
-0 -0 -0 1 1 2 2 3 7 16 22 15 9 9 9 9 9 7 7 5 6 9 11 11 8 9 11 9 9 10 11 12 12 14 19 15 17 16 13 12 11 9 9 9 9
-0 0 0 0 4 2 2 6 16 20 14 14 12 10 10 10 10 9 10 11 13 15 15 12 12 10 9 12 10 11 13 18 20 20 21 14 16 15 11 10 10 9 9 9 9
0 1 0 1 1 2 4 11 19 19 17 11 11 11 13 11 11 11 11 12 10 11 13 15 17 12 9 11 12 13 13 18 22 21 18 16 19 15 10 8 8 8 8 8 8
0 1 4 2 1 2 9 16 18 16 14 12 11 13 13 11 12 12 12 12 11 10 14 15 15 10 9 10 10 13 15 11 17 17 19 17 16 13 11 10 10 9 9 10 9
3 3 4 0 2 6 12 15 15 13 10 10 16 12 16 13 14 12 12 11 11 9 8 13 16 11 10 9 9 11 10 16 16 21 22 18 17 15 13 12 10 12 10 9 9
3 7 4 3 2 8 15 13 15 12 9 12 14 13 13 13 12 13 13 11 9 9 8 10 13 14 11 13 14 13 14 14 14 16 19 20 16 12 10 9 11 11 10 12 11
7 10 4 2 10 11 12 13 11 11 10 12 12 13 12 12 13 13 13 12 8 8 12 9 12 16 14 10 9 10 13 13 17 18 17 17 16 12 13 13 13 13 13 13 14
9 8 3 4 13 12 11 12 11 11 12 13 13 11 11 12 14 11 10 8 8 9 10 10 14 18 16 13 11 13 12 12 12 14 17 19 17 12 14 14 14 14 13 13 14
8 11 7 6 8 10 12 13 13 10 12 12 12 11 12 12 12 12 12 10 8 8 7 8 13 15 17 15 13 15 13 12 13 17 16 16 14 11 10 12 13 13 13 14 14
9 10 9 12 11 10 11 12 13 13 12 12 13 11 12 13 13 13 11 11 10 8 8 10 15 13 13 13 13 13 13 13 14 14 16 14 13 11 9 8 9 13 13 14 14
9 9 9 10 10 10 10 12 13 14 13 13 13 12 13 12 13 14 11 12 12 11 10 9 14 13 15 12 13 14 13 12 13 13 13 13 13 8 10 9 9 10 13 14 14
7 7 8 9 10 11 12 12 12 12 12 11 11 12 14 12 10 9 9 9 10 10 12 12 13 15 17 13 14 17 14 13 12 11 12 15 11 8 10 11 11 11 13 13 13